Total_Precipitation_Accumulation
0.64 0.57 0.69 0.78 0.87 1.26 1.36 1.45 1.54 1.49 1.55 1.73 1.51 1.22 1.15 1.13 2.22 2.75 1.49 0.96 1.08 1.34 0.90 0.49 0.38 0.59 0.64 0.42 0.10 0.13 0.10 0.14 0.47 0.95 0.51 0.51 0.46 0.27 0.15 0.04 0.08 0.12 0.22 0.28 0.58 0.66 0.41
0.58 0.64 0.73 0.84 0.88 0.92 1.15 1.60 1.56 1.42 1.38 1.47 1.43 1.14 1.19 1.39 1.42 1.14 0.84 1.00 1.15 1.47 0.85 0.62 0.52 0.68 0.46 0.21 0.03 0.03 0.12 0.22 0.44 0.95 0.64 0.62 0.61 0.35 0.22 0.11 0.11 0.04 0.11 0.26 0.90 0.90 0.51
0.54 0.66 0.78 0.78 0.77 0.90 1.10 1.16 1.23 1.36 1.51 1.51 1.56 1.19 1.10 0.98 0.88 0.73 0.83 1.29 1.33 1.02 0.58 0.46 0.66 0.53 0.40 0.11 0.04 0.08 0.11 0.24 0.37 0.85 0.68 0.65 1.12 0.78 0.46 0.28 0.12 0.11 0.23 0.43 0.93 1.08 1.03
0.57 0.63 0.69 0.82 0.91 0.89 0.91 0.98 1.06 1.04 1.15 1.19 1.06 0.85 0.80 0.83 1.18 1.40 1.43 1.42 1.00 0.80 0.44 0.45 0.70 0.75 0.26 0.02 0.04 0.02 0.10 0.29 0.43 0.76 1.07 1.01 1.75 1.06 0.73 0.36 0.42 0.49 0.51 0.52 0.50 0.95 1.32
0.60 0.63 0.75 0.83 0.92 0.96 0.96 1.00 1.06 1.08 1.15 1.08 0.86 0.72 0.82 1.01 1.22 1.44 1.80 1.17 0.94 0.76 0.61 0.70 0.72 0.62 0.19 0.06 0.07 0.02 0.11 0.36 0.42 0.71 1.19 1.63 2.48 1.56 1.05 0.69 0.69 0.68 0.32 0.23 0.49 0.59 1.15
0.64 0.68 0.69 0.70 0.75 0.88 0.80 0.89 1.11 1.19 1.16 1.02 0.99 1.14 1.25 1.24 1.66 1.87 1.40 1.14 0.91 0.87 0.82 1.00 1.03 0.71 0.20 0.07 0.12 0.08 0.12 0.43 0.57 0.92 1.90 2.64 3.78 1.98 1.10 0.83 0.52 0.32 0.24 0.17 0.41 0.61 0.88
0.60 0.59 0.59 0.56 0.64 0.71 0.78 0.86 0.87 1.02 0.98 0.91 0.89 1.23 1.82 2.79 2.55 1.59 1.43 1.79 1.41 1.26 0.98 0.70 0.45 0.24 0.23 0.19 0.32 0.31 0.22 0.57 1.04 1.62 2.22 2.14 3.44 1.55 0.66 0.29 0.17 0.27 0.15 0.13 0.23 0.39 0.55
0.67 0.65 0.57 0.61 0.73 0.80 0.84 0.87 0.90 0.99 1.00 0.91 0.89 0.96 1.41 2.53 1.91 1.57 1.62 1.39 0.70 0.63 0.73 0.30 0.21 0.12 0.11 0.29 0.56 0.59 0.32 1.01 1.39 1.83 2.33 2.24 1.72 0.65 0.56 0.41 0.21 0.47 0.28 0.26 0.42 0.42 0.34
0.66 0.59 0.58 0.70 0.68 0.72 0.69 0.77 0.91 0.99 0.92 0.88 0.91 0.94 1.22 1.70 1.45 1.55 1.42 0.90 0.37 0.72 1.23 0.68 0.46 0.33 0.26 0.44 0.59 0.64 0.50 1.12 1.48 1.87 2.19 1.79 1.26 0.79 0.89 0.54 0.33 0.29 0.18 0.29 0.62 0.61 0.35
0.71 0.61 0.74 0.72 0.79 0.79 0.83 1.00 1.05 0.93 0.94 0.88 0.84 0.99 1.31 1.33 1.51 1.50 1.56 0.99 0.86 1.36 2.03 1.07 0.81 0.77 0.67 0.88 1.00 0.67 0.63 1.44 1.84 1.75 1.77 1.80 1.16 1.09 1.15 0.60 0.24 0.16 0.15 0.56 0.50 0.59 0.51
0.98 0.81 0.82 0.77 0.85 0.97 1.02 1.22 1.15 1.04 0.86 0.78 0.86 1.15 1.74 1.57 1.69 1.44 1.60 1.27 1.51 1.92 1.90 0.74 0.91 1.02 0.87 1.04 0.85 1.05 0.69 1.48 1.50 1.72 2.05 1.72 1.27 1.56 1.20 0.61 0.23 0.19 0.19 0.45 0.62 0.79 0.82
1.23 0.94 1.09 1.08 1.05 1.00 1.06 1.21 1.14 1.04 0.97 0.93 1.14 1.24 1.84 1.47 1.49 1.01 1.12 1.80 2.20 2.23 1.63 1.56 1.28 1.40 0.99 0.67 0.75 0.77 0.91 1.31 1.37 2.26 1.83 1.29 1.55 1.48 0.84 0.69 0.35 0.30 0.42 0.66 0.96 1.15 1.29
1.47 1.30 1.16 1.19 1.25 1.19 1.19 1.07 0.98 1.09 1.21 1.37 1.38 1.35 1.80 1.23 1.38 0.98 1.23 2.14 2.27 1.23 0.98 1.37 1.70 1.33 0.60 0.53 0.54 0.92 1.26 0.95 1.52 2.06 2.34 1.94 1.66 1.17 0.84 1.13 1.01 1.31 1.56 1.84 1.62 1.53 0.93
1.62 1.41 1.43 1.43 1.34 1.34 1.38 1.18 0.98 1.14 1.53 1.54 1.27 1.73 1.55 1.09 0.98 1.56 1.42 1.62 1.41 0.74 0.98 0.73 0.89 0.68 0.75 0.55 0.79 0.74 0.96 0.42 0.67 1.02 1.36 1.68 1.96 1.43 1.10 1.31 1.86 1.40 1.19 1.34 0.86 0.60 0.37
1.70 1.63 1.47 1.59 1.47 1.45 1.55 1.53 1.36 1.38 1.41 1.64 1.84 1.81 1.86 1.37 1.20 1.68 1.76 1.34 1.21 1.05 1.00 0.88 0.63 0.54 0.70 0.33 0.51 0.54 0.45 0.19 0.34 0.54 0.77 0.77 1.05 0.69 0.65 0.67 1.08 1.05 0.98 0.70 0.87 0.34 0.44
1.90 2.00 1.81 1.65 1.74 1.74 1.65 1.80 1.86 1.69 1.66 1.77 2.40 2.08 2.10 1.24 1.23 1.77 1.93 1.17 1.14 1.17 0.65 0.30 0.39 0.19 0.13 0.15 0.27 0.21 0.15 0.06 0.19 0.16 0.24 0.38 0.86 0.80 0.74 0.83 0.90 0.63 0.39 0.61 1.23 0.63 0.40
1.81 1.72 1.66 1.84 1.98 1.74 1.52 1.98 1.85 1.74 1.80 1.92 2.17 2.45 2.01 1.43 1.67 2.11 1.56 0.94 0.85 0.64 0.39 0.21 0.06 0.06 0.03 0.03 0.19 0.05 0.05 0.05 0.11 0.07 0.14 0.45 0.71 0.86 1.04 1.02 0.79 0.66 0.65 0.52 0.58 0.31 0.22
1.42 1.60 1.60 1.72 1.92 1.86 1.73 1.70 1.57 1.68 2.42 2.11 1.88 2.26 1.58 2.03 2.35 1.53 0.81 0.90 0.92 0.53 0.20 0.18 0.07 0.02 0.01 0.01 0.12 0.05 0.03 0.03 0.03 0.03 0.16 0.38 0.56 0.77 0.62 0.21 0.17 0.28 0.28 0.20 0.78 0.40 0.27
1.27 1.60 1.75 1.82 1.78 1.74 1.76 1.55 1.09 1.25 1.98 1.92 1.91 1.88 2.47 1.42 1.24 0.76 0.69 0.85 0.59 0.19 0.19 0.21 0.05 0.01 0.00 0.01 0.02 0.01 0.02 0.00 0.00 0.01 0.15 0.29 0.74 0.79 0.77 0.52 0.49 0.65 0.35 0.28 0.62 1.13 0.62
1.64 2.14 2.49 2.23 2.02 1.62 1.35 1.07 0.89 1.05 1.55 1.61 1.44 1.89 3.29 2.08 0.55 0.57 1.00 1.13 0.79 0.25 0.19 0.23 0.08 0.04 0.04 0.02 0.00 0.00 0.04 0.00 0.00 0.01 0.18 0.66 0.61 0.75 0.75 0.74 0.79 0.55 0.31 0.49 1.00 1.36 0.39
1.56 1.83 2.19 2.16 1.83 1.74 1.35 1.07 1.28 1.51 1.48 1.18 0.84 0.65 0.83 0.88 0.43 0.23 0.67 0.83 0.83 0.66 0.43 0.27 0.13 0.04 0.05 0.02 0.02 0.00 0.01 0.00 0.00 0.01 0.21 0.73 0.94 1.21 0.74 0.38 0.93 0.53 0.29 0.37 0.87 0.61 0.58
1.52 2.11 2.63 2.86 2.79 1.98 1.52 1.32 1.53 1.76 1.44 1.00 0.52 0.31 0.16 0.06 0.04 0.05 0.37 0.84 0.90 0.77 0.60 0.31 0.14 0.05 0.05 0.03 0.01 0.00 0.00 0.00 0.00 0.01 0.11 0.47 0.79 0.96 0.56 0.17 0.33 0.34 0.15 0.20 0.19 0.31 0.41
1.01 1.64 1.82 2.07 2.74 2.60 1.98 1.48 1.40 1.61 1.74 1.06 0.54 0.27 0.13 0.12 0.06 0.04 0.09 0.40 0.64 0.63 0.49 0.27 0.18 0.16 0.04 0.02 0.01 0.01 0.00 0.00 0.00 0.01 0.10 0.28 0.45 0.78 0.63 0.37 0.24 0.42 0.26 0.15 0.14 0.20 0.33
1.48 1.84 2.25 1.76 1.61 1.42 1.48 1.27 1.31 1.41 1.48 1.02 0.50 0.38 0.16 0.15 0.08 0.03 0.02 0.23 0.41 0.30 0.41 0.24 0.20 0.15 0.03 0.05 0.04 0.04 0.04 0.01 0.02 0.03 0.02 0.08 0.26 0.46 0.49 0.49 0.51 0.43 0.25 0.11 0.13 0.16 0.21
1.10 1.57 2.08 2.51 2.05 1.09 0.76 0.83 1.02 0.69 0.62 0.67 0.36 0.43 0.22 0.08 0.02 0.02 0.03 0.24 0.29 0.23 0.38 0.36 0.23 0.08 0.07 0.12 0.17 0.11 0.16 0.12 0.03 0.02 0.02 0.03 0.17 0.28 0.18 0.21 0.21 0.08 0.13 0.19 0.13 0.12 0.09
0.76 1.06 1.30 1.44 1.84 1.28 0.73 0.56 0.60 0.53 0.49 0.71 0.46 0.51 0.22 0.10 0.03 0.01 0.00 0.12 0.31 0.21 0.28 0.34 0.22 0.12 0.19 0.21 0.30 0.14 0.13 0.11 0.05 0.04 0.03 0.03 0.09 0.31 0.12 0.11 0.00 0.02 0.05 0.03 0.01 0.05 0.01
0.79 1.05 1.28 1.19 1.05 0.90 0.75 0.60 0.49 0.49 0.41 0.55 0.55 0.36 0.24 0.17 0.03 0.01 0.03 0.09 0.31 0.23 0.28 0.40 0.29 0.21 0.31 0.41 0.36 0.16 0.05 0.00 0.01 0.02 0.05 0.12 0.17 0.26 0.18 0.19 0.00 0.00 0.00 0.00 0.05 0.04 0.00
0.94 0.88 1.09 1.18 1.10 0.92 0.65 0.50 0.42 0.45 0.49 0.46 0.54 0.37 0.35 0.23 0.04 0.04 0.07 0.11 0.25 0.34 0.32 0.50 0.48 0.39 0.47 0.54 0.36 0.15 0.05 0.01 0.00 0.00 0.00 0.03 0.05 0.08 0.12 0.13 0.01 0.00 0.00 0.01 0.02 0.00 0.00
1.75 1.45 1.20 1.06 0.98 0.82 0.63 0.47 0.50 0.41 0.50 0.49 0.49 0.26 0.32 0.28 0.07 0.06 0.06 0.03 0.09 0.29 0.34 0.41 0.56 0.37 0.42 0.34 0.22 0.16 0.10 0.02 0.01 0.01 0.00 0.00 0.00 0.00 0.00 0.00 0.00 0.00 0.00 0.00 0.00 0.00 0.00